Weather History for Longville, MN

Change the Weather History Date:

Monday, October 8, 2012

  Actual Average (KPWC) Record (KPWC)
Temperature  
Mean Temperature 37 °F -  
Max Temperature 46 °F 57 °F 80 °F (2003)
Min Temperature 28 °F 36 °F 19 °F (2000)
Degree Days  
Heating Degree Days 28    
Moisture  
Dew Point 33 °F    
Average Humidity 76    
Maximum Humidity 100    
Minimum Humidity 52    
Precipitation  
Precipitation 0.07 in - - ()
Sea Level Pressure  
Sea Level Pressure 29.62 in    
Wind  
Wind Speed 4 mph (South)    
Max Wind Speed 13 mph    
Max Gust Speed 24 mph    
Visibility 10 miles    
Events Rain    
Averages and records for this station are not official NWS values.
T = Trace of Precipitation, MM = Missing Value Source: NWS Daily Summary

Daily Weather History Graph

Daily Weather History Graph

Search for Another Location

Airport:

Trip Planner

Search our weather history database for the weather conditions in past years. The results will help you decide how hot, cold, wet, or windy it might be!

Date:

Astronomy

Oct. 08, 2012 Rise Set
Actual Time 7:25 AM CDT 6:41 PM CDT
Civil Twilight 6:55 AM CDT 7:12 PM CDT
Nautical Twilight 6:20 AM CDT 7:47 PM CDT
Astronomical Twilight 5:44 AM CDT 8:22 PM CDT
Moon No Moon Rise 2:55 PM CDT (10/8)
Length of Visible Light 12h 16m
Length of Day
11h 15m
Last Quarter, 46% of the Moon is Illuminated
Oct 8
Last Quarter
Oct 15
New
Oct 21
First Quarter
Oct 29
Full
Nov 6
Last Quarter

Hourly Weather History & Observations

Time (CDT) Temp. Windchill Dew Point Humidity Pressure Visibility Wind Dir Wind Speed Gust Speed Precip Events Conditions
12:16 AM 28.4 °F - 26.6 °F 93% 29.76 in 10.0 mi Calm Calm - N/A   Unknown
12:36 AM 28.4 °F - 24.8 °F 86% 29.75 in 10.0 mi Calm Calm - N/A   Unknown
12:56 AM 33.8 °F 30.8 °F 23.0 °F 65% 29.75 in 10.0 mi South 3.5 mph - N/A   Unknown
1:16 AM 33.8 °F 30.8 °F 26.6 °F 75% 29.75 in 10.0 mi South 3.5 mph - N/A   Unknown
1:36 AM 35.6 °F 32.8 °F 24.8 °F 65% 29.75 in 10.0 mi South 3.5 mph - N/A   Unknown
1:56 AM 39.2 °F 35.9 °F 23.0 °F 52% 29.74 in 10.0 mi South 4.6 mph - N/A   Unknown
2:16 AM 35.6 °F - 26.6 °F 70% 29.74 in 10.0 mi Calm Calm - N/A   Unknown
2:36 AM 35.6 °F 30.7 °F 24.8 °F 65% 29.74 in 10.0 mi SSE 5.8 mph - N/A   Unknown
2:56 AM 37.4 °F 33.8 °F 23.0 °F 56% 29.73 in 10.0 mi South 4.6 mph - N/A   Unknown
3:16 AM 37.4 °F 33.8 °F 21.2 °F 52% 29.72 in 10.0 mi South 4.6 mph - N/A   Unknown
3:36 AM 32.0 °F 28.7 °F 24.8 °F 75% 29.72 in 10.0 mi SSE 3.5 mph - N/A   Unknown
3:56 AM 30.2 °F 26.7 °F 24.8 °F 80% 29.71 in 10.0 mi SSE 3.5 mph - N/A   Unknown
4:16 AM 33.8 °F 29.6 °F 24.8 °F 70% 29.70 in 10.0 mi SSE 4.6 mph - N/A   Unknown
4:36 AM 37.4 °F 33.8 °F 21.2 °F 52% 29.70 in 10.0 mi South 4.6 mph - N/A   Unknown
4:56 AM 37.4 °F 34.9 °F 21.2 °F 52% 29.69 in 10.0 mi South 3.5 mph - N/A   Unknown
5:16 AM 35.6 °F - 24.8 °F 65% 29.68 in 10.0 mi Calm Calm - N/A   Unknown
5:36 AM 35.6 °F - 24.8 °F 65% 29.68 in 10.0 mi Calm Calm - N/A   Unknown
5:56 AM 35.6 °F - 24.8 °F 65% 29.67 in 10.0 mi Calm Calm - N/A   Unknown
6:16 AM 35.6 °F - 26.6 °F 70% 29.66 in 10.0 mi Calm Calm - N/A   Unknown
6:36 AM 35.6 °F 32.8 °F 26.6 °F 70% 29.66 in 10.0 mi SSE 3.5 mph - N/A   Unknown
6:56 AM 37.4 °F - 26.6 °F 65% 29.66 in 10.0 mi Calm Calm - N/A   Unknown
7:16 AM 37.4 °F 34.9 °F 28.4 °F 70% 29.65 in 10.0 mi SE 3.5 mph - N/A   Unknown
7:36 AM 37.4 °F 34.9 °F 28.4 °F 70% 29.65 in 10.0 mi SE 3.5 mph - N/A   Unknown
7:56 AM 37.4 °F 34.9 °F 28.4 °F 70% 29.65 in 10.0 mi SE 3.5 mph - N/A   Unknown
8:16 AM 39.2 °F 37.0 °F 28.4 °F 65% 29.64 in 10.0 mi ESE 3.5 mph - N/A   Unknown
8:36 AM 39.2 °F - 28.4 °F 65% 29.64 in 10.0 mi Calm Calm - N/A   Unknown
8:56 AM 39.2 °F - 28.4 °F 65% 29.62 in 10.0 mi Calm Calm - N/A   Unknown
9:16 AM 41.0 °F - 28.4 °F 61% 29.61 in 10.0 mi Calm Calm - N/A   Unknown
9:36 AM 42.8 °F 38.0 °F 30.2 °F 61% 29.61 in 10.0 mi SSE 8.1 mph - N/A   Clear
9:56 AM 44.6 °F 41.4 °F 30.2 °F 57% 29.60 in 10.0 mi South 5.8 mph - N/A   Clear
10:16 AM 44.6 °F 41.4 °F 30.2 °F 57% 29.60 in 10.0 mi SSE 5.8 mph - N/A   Clear
10:36 AM 44.6 °F 42.2 °F 32.0 °F 61% 29.59 in 10.0 mi South 4.6 mph - N/A   Drizzle
10:56 AM 42.8 °F 38.6 °F 33.8 °F 70% 29.58 in 10.0 mi South 6.9 mph - N/A Rain Rain
11:16 AM 42.8 °F 39.3 °F 35.6 °F 76% 29.57 in 10.0 mi SE 5.8 mph - N/A   Drizzle
11:36 AM 42.8 °F 41.1 °F 35.6 °F 76% 29.56 in 10.0 mi ESE 3.5 mph - N/A   Drizzle
11:56 AM 42.8 °F 41.1 °F 35.6 °F 76% 29.54 in 10.0 mi ESE 3.5 mph - N/A   Light Drizzle
12:16 PM 44.6 °F 41.4 °F 33.8 °F 66% 29.53 in 10.0 mi SE 5.8 mph - N/A   Light Drizzle
12:36 PM 44.6 °F 40.7 °F 33.8 °F 66% 29.53 in 10.0 mi SSE 6.9 mph - N/A   Light Drizzle
12:56 PM 42.8 °F 38.6 °F 37.4 °F 81% 29.53 in 10.0 mi SSE 6.9 mph - N/A Rain Light Rain
1:36 PM 41.0 °F 36.4 °F 37.4 °F 87% 29.52 in 10.0 mi SSE 6.9 mph - 0.03 in Rain Rain
1:56 PM 41.0 °F 34.7 °F 39.2 °F 93% 29.51 in 10.0 mi SSE 10.4 mph - N/A Rain Rain
2:16 PM 41.0 °F 37.1 °F 39.2 °F 93% 29.51 in 10.0 mi South 5.8 mph - 0.01 in Rain Light Rain
2:36 PM 41.0 °F 34.7 °F 39.2 °F 93% 29.51 in 10.0 mi SSE 10.4 mph - 0.01 in   Drizzle
2:56 PM 42.8 °F 37.0 °F 39.2 °F 87% 29.51 in 10.0 mi SSE 10.4 mph - N/A Rain Rain
3:16 PM 42.8 °F 39.3 °F 39.2 °F 87% 29.51 in 7.0 mi South 5.8 mph - N/A Rain Light Rain
3:36 PM 42.8 °F 40.1 °F 41.0 °F 93% 29.51 in 7.0 mi South 4.6 mph - 0.01 in Rain Rain
3:56 PM 44.6 °F 43.1 °F 42.8 °F 93% 29.51 in 10.0 mi South 3.5 mph - N/A Rain Light Rain
4:16 PM 44.6 °F 43.1 °F 42.8 °F 93% 29.51 in 10.0 mi SW 3.5 mph - N/A   Overcast
4:36 PM 44.6 °F 40.2 °F 42.8 °F 93% 29.51 in 10.0 mi SW 8.1 mph - N/A   Overcast
4:56 PM 44.6 °F 42.2 °F 42.8 °F 93% 29.52 in 7.0 mi WSW 4.6 mph - N/A   Overcast
5:16 PM 44.6 °F 42.2 °F 44.6 °F 100% 29.53 in 3.0 mi WSW 4.6 mph - N/A   Drizzle
5:36 PM 44.6 °F 41.4 °F 44.6 °F 100% 29.54 in 5.0 mi West 5.8 mph - 0.01 in   Heavy Drizzle
5:56 PM 46.4 °F 42.4 °F 44.6 °F 93% 29.55 in 10.0 mi West 8.1 mph - N/A   Mostly Cloudy
6:16 PM 44.6 °F 38.4 °F 42.8 °F 93% 29.57 in 10.0 mi West 12.7 mph 24.2 mph 0.01 in   Mostly Cloudy
6:56 PM 44.6 °F 38.8 °F 39.2 °F 81% 29.60 in 10.0 mi West 11.5 mph 17.3 mph N/A   Overcast
7:16 PM 44.6 °F 40.7 °F 39.2 °F 81% 29.61 in 10.0 mi West 6.9 mph - N/A   Overcast
7:36 PM 42.8 °F 40.1 °F 39.2 °F 87% 29.61 in 10.0 mi West 4.6 mph - N/A   Mostly Cloudy
7:56 PM 42.8 °F 38.6 °F 37.4 °F 81% 29.62 in 10.0 mi West 6.9 mph - N/A   Clear
8:16 PM 42.8 °F 36.2 °F 39.2 °F 87% 29.62 in 10.0 mi West 12.7 mph 16.1 mph N/A   Scattered Clouds
8:36 PM 42.8 °F 38.6 °F 39.2 °F 87% 29.63 in 10.0 mi West 6.9 mph - N/A   Mostly Cloudy
9:16 PM 42.8 °F 40.1 °F 39.2 °F 87% 29.63 in 10.0 mi WSW 4.6 mph - N/A   Mostly Cloudy
9:36 PM 42.8 °F 38.6 °F 39.2 °F 87% 29.63 in 10.0 mi SW 6.9 mph - N/A   Overcast
9:56 PM 42.8 °F 40.1 °F 39.2 °F 87% 29.63 in 10.0 mi SW 4.6 mph - N/A   Overcast
10:16 PM 42.8 °F 39.3 °F 39.2 °F 87% 29.63 in 10.0 mi WSW 5.8 mph - N/A   Scattered Clouds
10:56 PM 42.8 °F 39.3 °F 39.2 °F 87% 29.63 in 10.0 mi WSW 5.8 mph - N/A   Clear
11:36 PM 42.8 °F 39.3 °F 39.2 °F 87% 29.64 in 10.0 mi WSW 5.8 mph - N/A   Scattered Clouds
11:56 PM 41.0 °F 35.8 °F 37.4 °F 87% 29.64 in 10.0 mi WSW 8.1 mph - N/A   Scattered Clouds